Ana Sayfa
METAR-TAF:

METAR-TAF

Havaalanları :

Twin County Airport

Galax / Hillsville, Virginia, Amerika Birleşik Devletleri

Enlem: 36-46N, Boylam: 080-49W, yükseklik: 834 m

Güncel hava durumu gözlemi

Rapor saat 15:15 UTC de 21 dakika önce yapıldı.
Rüzgar güneydoğudan 3 kt
Sıcaklık -6°C
Nem 58%
Basınç 1026 hPa
Görüş mesafesi: 16.1 km
Açık gökyüzü

METAR: KHLX 131515Z AUTO 13003KT 10SM CLR M06/M13 A3031 RMK AO2 T10561133

Saat: 10:36 (15:36 UTC)


TAF: eksik

4.000'den fazla havaalanı için hava durumu gözlemleri ve tahminleri (METAR ve TAF raporları).

Kullanılabilir istasyonlar harita üzerinde sarı ve kırmızı noktalarla gösterilir.

İstasyonun adını görmek için fareyi noktanın üzerinde gezdirin.

Sonrasında hava gözlem ve tahminlerini görmek için tıklayın.

Haritayı değiştirmek için: yaklaştırmak için siyah artı işaretli yeşil düğmeye ve uzaklaştırmak için de eksi işaretli düğmeye hızla tıklayın; bitişik haritalar için yeşil okları kullanın.


METAR-TAF: